星链-36662(STARLINK-36662)

导读

STARLINK-36662是美国SpaceX星链计划的卫星,于2026年2月16日发射。作为星链星座组网的一员,它依托一箭多星发射模式入轨,属于低轨互联网卫星,旨在为全球提供高覆盖率的宽带互联网服务,进一步扩充星链星座的卫星规模,提升星座网络的通信能力与服务覆盖范围。

Basic Information
目录编号:
67832
目录名称:
STARLINK-36662
国际标识:
2026-033M
轨道中心:
EARTH
卫星名称:
星链-36662
卫星全名:
星链-36662(STARLINK-36662)
卫星状态:
在轨 (已飞行209 天)
发射日期:
2026-02-16 UTC
国别 :
美国 (US)
星等 :
--
This satellite is enrolled in the Space Conjunction Data Service (SCDS) and the current flight risk assessment level is: High Risk
Orbit Information
数据来源 国际轨道数据 AOE轨道数据
星历时间 2026-09-12T19:58:45+0800
21小时前
查看轨道信息
2026-09-07T03:00:00+0800
6天前
查看轨道信息
半长轴 6861.184km 6861.244km
偏心率 0.0001531 0.0001208
轨道倾角 43.000° 43.001°
近地点辐角 278.015° 273.834°
升交点赤经 285.035° 317.272°
平近点角 82.053° 342.464°
近地点 481.996km 482.278km
远地点 484.098km 483.936km
周期 94.267分钟 94.268分钟
每日圈数 15.275809 15.275608
Detailed Information
固有亮度:
5
最大亮度:
2.5
卫星平台:
Starlink V1.0
覆盖范围:
全球
运营商:
太空探索技术公司
运营商所在国:
美国
制造商(研发单位):
太空探索技术公司
制造商所在国:
美国
使用方式:
暂无
Satellite Introduction
Starlink 计划是 SpaceX 推出的全球卫星互联网项目,通过发射低轨道卫星,为全球尤其是偏远地区提供高速、低延迟的互联网服务。自 2019 年起,Starlink 已部署数千颗卫星,旨在缩小全球数字鸿沟,推动互联网普及。该项目还为军事、航空等行业提供通信支持,带来广泛经济效益。
2D Orbit Map
3D Orbit Map
Orbit Altitude Analysis Chart
Orbit Inclination Analysis Chart
Orbit Comprehensive Analysis Chart
View Comprehensive Chart
Conjunction Data List
Event ID Objects TCA Miss Dist (km) Collision Risk Probability Collision Risk Index (CRI) Action
CDM_260915-204105-602206-783221
2026-09-15T
20:41:29+0000
0.240 km
中距离
5.746844E-4 高风险 0.9
CDM_260914-184106-400206-783221
2026-09-14T
18:41:08+0000
0.548 km
远距离
1.118851E-4 高风险 0.76
CDM_260914-201506-400206-783221
2026-09-14T
20:15:17+0000
0.592 km
远距离
9.081196E-5 中风险 0.74
CDM_260914-175305-561606-783221
2026-09-14T
17:53:29+0000
0.704 km
远距离
5.379101E-5 中风险 0.7
CDM_260914-161905-561606-783221
2026-09-14T
16:19:19+0000
0.903 km
远距离
2.40957E-5 中风险 0.63
CDM_260915-190705-602206-783221
2026-09-15T
19:07:20+0000
1.423 km
极远距离
6.080451E-6 低风险 0.51
CDM_260914-170606-400206-783221
2026-09-14T
17:06:59+0000
1.677 km
极远距离
3.104481E-6 低风险 0.45
CDM_260915-221505-602206-783221
2026-09-15T
22:15:39+0000
1.807 km
极远距离
2.909372E-6 低风险 0.44
CDM_260914-214906-400206-783221
2026-09-14T
21:49:26+0000
1.741 km
极远距离
2.783493E-6 低风险 0.44
CDM_260914-192705-561606-783221
2026-09-14T
19:27:38+0000
2.346 km
极远距离
1.333167E-6 低风险 0.37
Miss Distance Evolution Trend with All Objects
Collision Probability Evolution Trend with All Objects